Vorticity
7 8 3 5 1 0 1 2 2 4 3 1 3 5 7 9 9 11 10 10 14 15 12 10 11 15 16 7 3 6 2 2 3 3 5 3 8 5 8 8 1 7 9 7 6 4 5
4 4 6 4 1 1 1 0 1 2 -1 1 2 6 3 7 9 8 9 9 9 8 11 14 14 12 12 18 17 11 6 6 5 4 4 5 1 0 3 7 5 11 9 10 7 10 7
7 1 1 2 3 2 0 3 2 0 -1 7 2 1 3 7 6 6 5 10 14 11 10 8 6 15 14 7 9 14 15 13 11 9 8 9 7 4 3 6 4 5 5 6 13 10 6
7 2 1 0 1 -3 -1 1 7 6 3 4 5 -3 -0 3 6 2 5 10 7 10 7 9 11 10 12 11 10 14 11 11 11 11 10 9 8 9 10 6 3 2 -1 5 9 12 14
4 2 0 -0 1 -3 1 5 9 4 7 5 7 5 5 3 -1 9 -0 -1 9 -0 1 -3 7 7 6 12 8 7 10 6 9 9 9 10 13 12 6 11 10 10 17 17 8 5 15
4 2 3 1 1 2 -2 8 1 5 6 8 9 7 2 -5 8 -6 3 5 -1 0 3 -1 11 1 -7 3 -5 8 6 8 9 12 10 13 7 6 8 7 8 13 3 6 7 9 3
3 3 5 4 6 5 4 4 -3 6 5 11 9 3 9 7 5 -5 0 1 10 3 4 6 1 2 6 7 5 2 4 4 10 5 7 -0 2 8 17 11 7 4 4 8 10 12 7
0 3 5 7 6 5 -1 1 2 7 8 10 5 4 3 7 7 3 0 2 -0 -0 11 6 -3 0 1 -10 3 2 8 6 6 5 7 12 10 9 -0 -0 8 12 12 7 14 17 15
6 11 9 3 -3 -1 1 6 6 7 10 11 5 0 -2 7 -4 1 -1 1 1 3 6 -1 -3 -1 -4 1 -0 2 5 6 6 0 3 3 6 4 7 8 -0 2 1 8 24 12 7
6 2 2 -0 7 8 9 5 11 6 9 5 11 13 14 6 1 7 3 2 1 1 1 -3 2 12 3 8 3 9 5 4 9 6 1 -1 4 15 9 4 21 4 30 15 8 12 9
3 4 7 9 3 8 7 4 2 7 8 7 2 12 -3 4 0 5 -0 3 3 6 -4 7 10 5 1 1 -4 16 -1 9 16 15 20 21 11 24 17 28 8 8 2 -0 -0 -3 2
9 14 3 3 7 4 3 7 12 10 7 5 4 5 7 2 1 -2 -1 1 3 7 8 5 6 -1 12 5 15 2 7 13 18 23 20 20 18 8 25 18 9 14 15 18 15 10 -1
2 2 4 9 3 7 9 10 9 5 4 4 3 5 1 -0 1 -0 3 2 9 -1 6 0 4 -2 11 11 12 23 29 34 25 32 17 26 18 23 36 15 19 8 21 19 10 -0 -14
8 6 6 5 8 7 11 6 4 4 4 4 4 3 3 4 5 5 1 8 1 2 -1 4 10 11 21 24 28 29 31 26 19 14 8 14 10 2 -12 0 15 7 -0 -4 7 17 20
2 5 7 7 15 8 7 5 3 4 6 5 3 2 4 6 4 3 9 3 4 6 7 15 11 30 35 43 33 38 31 30 39 40 21 16 26 43 37 23 8 11 45 0 8 9 8
4 7 12 7 7 8 3 2 0 2 4 4 5 4 4 5 5 8 3 3 6 16 36 48 40 44 28 20 13 17 23 25 25 25 33 44 33 10 20 -2 -7 58 2 28 28 31 29
6 10 7 8 5 4 5 1 2 4 6 5 7 2 6 9 5 7 4 6 21 31 43 33 23 15 14 19 21 18 22 23 37 32 23 16 26 40 26 -9 37 -2 -26 25 5 88 5
2 6 6 3 6 5 3 4 6 4 4 6 5 5 8 3 8 13 14 28 46 32 20 16 16 11 13 22 27 22 19 10 14 5 10 4 9 23 42 66 3 14 11 -4 -15 -21 10
6 9 6 6 2 3 7 8 5 7 3 4 5 4 7 3 9 6 33 26 22 19 16 15 16 15 20 26 21 16 12 15 4 14 16 9 14 16 20 32 23 42 9 8 7 14 30
14 9 7 1 5 6 8 3 5 4 6 6 4 7 5 24 23 44 32 20 17 16 15 15 14 14 19 25 13 5 9 9 6 3 7 13 -2 -3 1 -2 20 11 13 20 8 19 12
7 5 1 5 7 8 6 3 3 6 7 5 6 5 6 16 31 21 22 15 14 13 22 14 13 6 22 14 13 14 18 18 19 8 6 11 45 23 4 20 27 27 17 8 12 9 15
4 -2 2 5 7 6 4 3 8 7 5 6 6 9 21 35 14 14 14 11 12 18 15 15 14 12 9 13 5 12 5 18 25 32 19 18 10 13 42 19 14 19 25 9 27 27 4
0 5 3 8 6 3 4 6 4 6 6 6 7 28 25 20 15 17 12 14 12 17 16 14 15 12 6 4 14 22 26 16 13 12 8 26 25 4 15 21 18 31 1 -5 -2 17 15
5 5 9 8 3 4 6 4 7 7 7 12 26 31 13 16 16 19 18 18 14 18 14 13 14 18 9 7 14 7 28 18 15 7 12 10 6 11 26 20 8 -0 4 25 7 6 7
4 10 8 3 4 6 5 7 6 6 11 37 20 15 14 13 18 17 28 22 26 13 14 8 9 8 12 13 14 6 13 17 4 18 2 5 8 -4 10 33 10 27 12 7 16 5 11
10 10 3 3 7 6 5 7 5 12 34 19 12 16 13 10 21 31 22 20 9 -5 24 10 16 7 18 14 11 18 10 18 5 0 8 4 0 3 4 4 14 14 9 8 8 7 4
9 4 3 8 6 4 7 5 7 29 14 17 16 15 19 20 21 22 16 16 23 -25 22 15 11 9 7 6 7 6 11 12 11 8 -7 -9 6 7 4 5 6 2 4 11 7 8 3
5 4 9 5 6 6 5 4 32 16 16 19 15 19 19 22 22 19 17 15 20 21 22 16 6 12 9 5 10 6 5 15 10 5 11 6 10 10 12 9 5 -1 -1 -2 5 2 3
5 9 4 7 6 5 6 31 15 14 18 13 23 19 21 26 19 21 18 20 13 14 13 9 16 10 10 10 11 9 13 9 6 4 8 12 7 6 7 12 10 9 4 5 11 11 10
Height
5817 5814 5812 5811 5808 5806 5804 5802 5799 5796 5793 5789 5786 5782 5778 5775 5771 5767 5764 5761 5757 5754 5751 5748 5745 5743 5743 5743 5741 5736 5736 5734 5732 5731 5730 5728 5725 5723 5721 5720 5719 5716 5723 5722 5722 5721 5720
5815 5813 5812 5810 5808 5806 5803 5800 5798 5795 5792 5788 5785 5781 5777 5773 5768 5763 5760 5757 5753 5750 5747 5743 5740 5736 5734 5733 5732 5729 5726 5723 5721 5720 5719 5717 5714 5711 5709 5711 5710 5709 5708 5712 5710 5712 5712
5814 5812 5810 5808 5806 5804 5801 5798 5795 5792 5789 5786 5782 5778 5774 5770 5766 5761 5757 5753 5749 5745 5741 5737 5734 5730 5729 5725 5721 5721 5717 5714 5711 5708 5706 5704 5702 5701 5700 5699 5699 5697 5695 5697 5700 5702 5702
5813 5811 5808 5806 5804 5802 5799 5796 5792 5789 5785 5782 5779 5775 5770 5766 5762 5758 5754 5749 5745 5741 5737 5733 5729 5725 5721 5718 5715 5711 5709 5706 5702 5698 5695 5692 5689 5689 5688 5688 5684 5685 5682 5684 5693 5691 5691
5810 5809 5807 5804 5803 5800 5796 5793 5789 5786 5781 5777 5774 5771 5766 5762 5757 5753 5750 5746 5741 5736 5731 5727 5724 5719 5717 5713 5709 5704 5701 5697 5692 5689 5685 5681 5679 5678 5676 5673 5671 5672 5674 5674 5673 5678 5677
5808 5807 5805 5802 5799 5796 5793 5789 5785 5781 5776 5772 5768 5765 5761 5757 5753 5748 5744 5740 5736 5731 5726 5721 5718 5715 5710 5705 5701 5697 5692 5688 5684 5679 5675 5671 5667 5665 5662 5657 5661 5659 5656 5657 5656 5658 5659
5805 5803 5801 5798 5795 5792 5788 5784 5780 5776 5772 5767 5763 5759 5754 5750 5746 5741 5737 5733 5730 5726 5719 5713 5708 5704 5698 5695 5692 5686 5681 5676 5672 5668 5663 5658 5654 5653 5651 5646 5645 5640 5638 5642 5644 5644 5642
5801 5799 5796 5793 5790 5786 5782 5778 5774 5769 5765 5761 5757 5752 5747 5742 5738 5733 5727 5722 5718 5714 5712 5704 5698 5691 5687 5682 5676 5669 5664 5660 5654 5651 5646 5643 5641 5640 5636 5632 5628 5626 5626 5627 5627 5627 5625
5796 5793 5791 5788 5784 5780 5776 5771 5767 5763 5758 5753 5749 5745 5740 5734 5728 5723 5717 5711 5705 5700 5695 5690 5683 5678 5672 5666 5660 5652 5646 5639 5634 5630 5626 5622 5626 5620 5618 5617 5612 5612 5612 5613 5613 5608 5607
5791 5788 5785 5781 5777 5773 5769 5765 5759 5754 5750 5746 5741 5736 5731 5725 5720 5712 5706 5699 5693 5687 5680 5674 5665 5659 5651 5644 5636 5630 5620 5618 5612 5609 5603 5599 5602 5600 5596 5597 5587 5593 5599 5594 5592 5588 5590
5785 5782 5778 5774 5770 5766 5761 5756 5751 5746 5741 5736 5732 5726 5720 5714 5707 5700 5693 5685 5677 5671 5661 5656 5648 5639 5627 5619 5608 5600 5592 5585 5583 5580 5575 5579 5575 5570 5572 5575 5563 5575 5570 5572 5570 5568 5567
5779 5775 5771 5767 5763 5758 5753 5748 5743 5738 5732 5726 5721 5715 5707 5701 5693 5685 5677 5669 5661 5653 5642 5631 5624 5616 5607 5597 5587 5577 5567 5554 5549 5547 5541 5547 5547 5542 5543 5546 5543 5550 5548 5547 5546 5547 5541
5772 5769 5764 5760 5755 5751 5745 5740 5734 5728 5722 5716 5709 5702 5694 5687 5677 5668 5660 5652 5641 5632 5618 5612 5600 5589 5576 5572 5563 5551 5544 5531 5526 5522 5516 5521 5522 5522 5520 5517 5524 5525 5528 5524 5523 5523 5524
5765 5762 5757 5752 5747 5742 5736 5730 5725 5719 5712 5704 5696 5688 5679 5670 5660 5650 5642 5631 5621 5609 5596 5580 5571 5563 5552 5539 5535 5525 5515 5506 5500 5498 5496 5493 5505 5504 5503 5500 5503 5510 5511 5506 5504 5509 5515
5759 5755 5749 5744 5739 5733 5727 5722 5715 5707 5699 5690 5682 5673 5664 5654 5643 5633 5621 5607 5596 5582 5569 5556 5548 5536 5531 5516 5497 5498 5493 5486 5481 5477 5477 5473 5475 5483 5485 5488 5491 5492 5495 5503 5493 5498 5495
5752 5746 5741 5737 5730 5724 5718 5710 5703 5694 5686 5678 5668 5658 5647 5635 5624 5612 5599 5584 5569 5554 5543 5529 5518 5512 5504 5499 5488 5478 5475 5472 5465 5461 5458 5456 5454 5464 5469 5469 5475 5477 5481 5485 5481 5477 5479
5744 5739 5733 5727 5721 5715 5708 5700 5691 5683 5673 5663 5652 5640 5629 5617 5604 5590 5579 5563 5548 5533 5522 5514 5504 5494 5487 5481 5475 5467 5462 5459 5455 5451 5448 5446 5442 5446 5449 5454 5457 5467 5464 5467 5467 5466 5464
5736 5730 5724 5717 5711 5705 5697 5688 5679 5669 5658 5647 5636 5624 5610 5598 5586 5567 5554 5540 5529 5518 5508 5502 5492 5480 5472 5466 5463 5457 5453 5449 5448 5445 5444 5440 5434 5433 5436 5439 5445 5448 5451 5449 5450 5451 5452
5727 5721 5714 5709 5702 5693 5685 5675 5665 5655 5645 5634 5620 5605 5590 5576 5564 5553 5536 5522 5513 5504 5493 5489 5481 5472 5465 5458 5452 5449 5447 5445 5442 5439 5435 5435 5431 5425 5428 5431 5432 5434 5438 5437 5436 5438 5441
5718 5712 5706 5699 5691 5682 5672 5661 5651 5641 5630 5619 5606 5590 5572 5554 5541 5528 5521 5512 5503 5493 5485 5478 5468 5462 5457 5453 5447 5444 5441 5441 5436 5432 5430 5425 5424 5422 5420 5422 5421 5420 5424 5427 5427 5428 5428
5710 5704 5697 5688 5679 5670 5659 5649 5638 5626 5614 5602 5588 5575 5557 5539 5525 5514 5504 5496 5489 5483 5478 5468 5465 5455 5449 5446 5443 5439 5435 5432 5431 5426 5422 5417 5414 5414 5415 5413 5411 5411 5415 5416 5417 5417 5420
5701 5695 5686 5678 5668 5658 5647 5635 5622 5611 5599 5585 5571 5559 5546 5528 5514 5503 5492 5484 5477 5472 5463 5460 5455 5452 5445 5439 5434 5430 5427 5426 5422 5419 5417 5413 5410 5408 5407 5406 5403 5404 5408 5409 5410 5410 5411
5692 5685 5676 5667 5657 5646 5635 5624 5612 5598 5584 5567 5550 5539 5526 5517 5505 5492 5483 5474 5468 5460 5458 5448 5446 5444 5440 5435 5430 5425 5422 5419 5416 5413 5412 5409 5405 5403 5402 5401 5399 5401 5403 5404 5405 5405 5406
5683 5674 5666 5656 5645 5635 5623 5611 5597 5583 5567 5550 5535 5521 5511 5506 5492 5479 5471 5465 5459 5453 5447 5443 5437 5434 5433 5429 5426 5421 5417 5415 5412 5411 5409 5406 5403 5401 5399 5397 5397 5397 5397 5398 5400 5401 5401
5673 5664 5655 5644 5634 5623 5611 5598 5584 5568 5551 5533 5517 5506 5494 5490 5478 5473 5463 5455 5451 5446 5441 5436 5432 5427 5424 5422 5420 5417 5415 5413 5411 5408 5406 5404 5401 5399 5397 5395 5395 5395 5395 5395 5395 5397 5397
5662 5653 5644 5634 5623 5612 5600 5586 5570 5553 5537 5523 5507 5493 5481 5470 5465 5456 5451 5446 5441 5438 5436 5431 5426 5421 5418 5416 5414 5411 5409 5407 5407 5405 5402 5400 5399 5398 5395 5394 5393 5393 5392 5391 5391 5392 5391
5651 5643 5634 5623 5612 5600 5587 5572 5556 5540 5524 5510 5496 5483 5471 5460 5451 5444 5441 5438 5433 5429 5426 5422 5419 5416 5413 5410 5409 5407 5405 5402 5400 5399 5397 5397 5395 5394 5391 5389 5388 5388 5386 5385 5386 5388 5384
5642 5632 5622 5612 5601 5588 5573 5558 5541 5528 5513 5500 5486 5472 5463 5450 5444 5440 5435 5430 5425 5421 5417 5415 5413 5409 5407 5404 5402 5400 5398 5396 5394 5391 5389 5388 5387 5386 5385 5383 5383 5380 5379 5379 5378 5376 5376
5632 5623 5613 5602 5590 5574 5560 5543 5530 5516 5503 5490 5477 5463 5452 5444 5436 5432 5426 5422 5417 5413 5410 5407 5405 5402 5399 5397 5395 5393 5391 5388 5386 5385 5383 5382 5380 5378 5378 5375 5373 5371 5369 5368 5367 5367 5366